Time,TemperatureF,DewpointF,PressureIn,WindDirection,WindDirectionDegrees,WindSpeedMPH,WindSpeedGustMPH,Humidity,HourlyPrecipIn,Conditions,Clouds,dailyrainin,SoftwareType,DateUTC
2013-09-14 00:04:00,49.5,45.8,30.11,ENE,63,2.0,2.0,87,0.00,,,0.00,VWS V14.01,2013-09-14 05:04:00,
2013-09-14 00:09:00,49.5,45.2,30.11,ENE,67,0.0,2.0,85,0.00,,,0.00,VWS V14.01,2013-09-14 05:09:00,
2013-09-14 00:14:00,49.5,45.2,30.11,ENE,59,0.0,2.0,85,0.00,,,0.00,VWS V14.01,2013-09-14 05:14:00,
2013-09-14 00:19:00,49.6,44.7,30.11,ENE,76,0.0,2.0,83,0.00,,,0.00,VWS V14.01,2013-09-14 05:19:00,
2013-09-14 00:24:00,49.5,44.6,30.11,NE,47,0.0,2.0,83,0.00,,,0.00,VWS V14.01,2013-09-14 05:24:00,
2013-09-14 00:29:00,49.5,44.2,30.11,ENE,68,0.0,2.0,82,0.00,,,0.00,VWS V14.01,2013-09-14 05:29:00,
2013-09-14 00:34:00,49.7,44.4,30.11,East,79,0.0,2.0,82,0.00,,,0.00,VWS V14.01,2013-09-14 05:34:00,
2013-09-14 00:39:00,49.8,44.5,30.11,ENE,59,1.0,2.0,82,0.00,,,0.00,VWS V14.01,2013-09-14 05:39:00,
2013-09-14 00:44:00,49.9,44.6,30.11,ENE,72,1.0,2.0,82,0.00,,,0.00,VWS V14.01,2013-09-14 05:44:00,
2013-09-14 00:49:00,50.0,44.4,30.11,ENE,57,0.0,2.0,81,0.00,,,0.00,VWS V14.01,2013-09-14 05:49:00,
2013-09-14 00:54:00,50.4,44.1,30.11,ENE,72,0.0,2.0,79,0.00,,,0.00,VWS V14.01,2013-09-14 05:54:00,
2013-09-14 00:59:00,50.5,44.2,30.11,East,85,0.0,2.0,79,0.00,,,0.00,VWS V14.01,2013-09-14 05:59:00,
2013-09-14 01:04:00,50.6,44.0,30.11,ENE,73,0.0,1.0,78,0.00,,,0.00,VWS V14.01,2013-09-14 06:04:00,
2013-09-14 01:09:00,51.1,44.2,30.11,ENE,77,0.0,2.0,77,0.00,,,0.00,VWS V14.01,2013-09-14 06:09:00,
2013-09-14 01:14:00,51.5,44.2,30.11,East,79,1.0,3.0,76,0.00,,,0.00,VWS V14.01,2013-09-14 06:14:00,
2013-09-14 01:19:00,51.4,44.8,30.11,ENE,72,0.0,3.0,78,0.00,,,0.00,VWS V14.01,2013-09-14 06:19:00,
2013-09-14 01:24:00,51.1,44.8,30.11,SSE,159,0.0,4.0,79,0.00,,,0.00,VWS V14.01,2013-09-14 06:24:00,
2013-09-14 01:29:00,51.1,44.8,30.11,ESE,120,0.0,4.0,79,0.00,,,0.00,VWS V14.01,2013-09-14 06:29:00,
2013-09-14 01:34:00,51.0,45.1,30.11,SE,142,0.0,2.0,80,0.00,,,0.00,VWS V14.01,2013-09-14 06:34:00,
2013-09-14 01:39:00,51.1,45.8,30.11,ESE,117,0.0,4.0,82,0.00,,,0.00,VWS V14.01,2013-09-14 06:39:00,
2013-09-14 01:44:00,51.2,46.2,30.11,NE,52,0.0,4.0,83,0.00,,,0.00,VWS V14.01,2013-09-14 06:44:00,
2013-09-14 01:49:00,51.0,46.0,30.11,SE,127,2.0,4.0,83,0.00,,,0.00,VWS V14.01,2013-09-14 06:49:00,
2013-09-14 01:54:00,51.0,46.3,30.11,East,93,0.0,4.0,84,0.00,,,0.00,VWS V14.01,2013-09-14 06:54:00,
2013-09-14 01:59:00,50.8,45.8,30.11,ESE,107,0.0,4.0,83,0.00,,,0.00,VWS V14.01,2013-09-14 06:59:00,
2013-09-14 02:04:00,50.8,46.2,30.11,ESE,120,0.0,5.0,84,0.00,,,0.00,VWS V14.01,2013-09-14 07:04:00,
2013-09-14 02:09:00,50.7,46.4,30.11,NE,39,0.0,5.0,85,0.00,,,0.00,VWS V14.01,2013-09-14 07:09:00,
2013-09-14 02:14:00,50.4,46.1,30.11,East,82,1.0,5.0,85,0.00,,,0.00,VWS V14.01,2013-09-14 07:14:00,
2013-09-14 02:20:00,50.3,46.3,30.11,ESE,108,1.0,5.0,86,0.00,,,0.00,VWS V14.01,2013-09-14 07:20:00,
2013-09-14 02:25:00,50.3,46.0,30.11,East,98,0.0,5.0,85,0.00,,,0.00,VWS V14.01,2013-09-14 07:25:00,
2013-09-14 02:30:00,50.2,46.2,30.11,ESE,117,0.0,5.0,86,0.00,,,0.00,VWS V14.01,2013-09-14 07:30:00,
2013-09-14 02:35:00,49.8,46.1,30.11,ESE,117,0.0,0.0,87,0.00,,,0.00,VWS V14.01,2013-09-14 07:35:00,
2013-09-14 02:40:00,49.6,46.2,30.11,ESE,117,0.0,0.0,88,0.00,,,0.00,VWS V14.01,2013-09-14 07:40:00,
2013-09-14 02:45:00,49.5,46.1,30.11,ESE,117,0.0,0.0,88,0.00,,,0.00,VWS V14.01,2013-09-14 07:45:00,
2013-09-14 02:50:00,49.1,46.0,30.11,SSE,156,0.0,0.0,89,0.00,,,0.00,VWS V14.01,2013-09-14 07:50:00,
2013-09-14 02:55:00,49.3,46.2,30.11,SW,214,0.0,1.0,89,0.00,,,0.00,VWS V14.01,2013-09-14 07:55:00,
2013-09-14 03:00:00,49.3,46.2,30.10,SSW,211,0.0,1.0,89,0.00,,,0.00,VWS V14.01,2013-09-14 08:00:00,
2013-09-14 03:05:00,49.2,46.1,30.10,SSW,203,0.0,3.0,89,0.00,,,0.00,VWS V14.01,2013-09-14 08:05:00,
2013-09-14 03:10:00,49.1,45.7,30.10,SSW,203,0.0,3.0,88,0.00,,,0.00,VWS V14.01,2013-09-14 08:10:00,
2013-09-14 03:15:00,48.9,46.1,30.10,SSW,203,0.0,3.0,90,0.00,,,0.00,VWS V14.01,2013-09-14 08:15:00,
2013-09-14 03:20:00,49.1,46.3,30.10,SSW,203,0.0,3.0,90,0.00,,,0.00,VWS V14.01,2013-09-14 08:20:00,
2013-09-14 03:25:00,49.1,46.3,30.11,SSW,193,0.0,3.0,90,0.00,,,0.00,VWS V14.01,2013-09-14 08:25:00,
2013-09-14 03:30:00,49.1,46.0,30.11,ESE,118,0.0,3.0,89,0.00,,,0.00,VWS V14.01,2013-09-14 08:30:00,
2013-09-14 03:35:00,49.2,46.1,30.11,South,191,0.0,2.0,89,0.00,,,0.00,VWS V14.01,2013-09-14 08:35:00,
2013-09-14 03:40:00,49.3,46.2,30.11,SSW,210,0.0,2.0,89,0.00,,,0.00,VWS V14.01,2013-09-14 08:40:00,
2013-09-14 03:45:00,49.4,46.0,30.11,SSW,210,0.0,2.0,88,0.00,,,0.00,VWS V14.01,2013-09-14 08:45:00,
2013-09-14 03:50:00,49.4,46.3,30.12,SSW,195,0.0,2.0,89,0.00,,,0.00,VWS V14.01,2013-09-14 08:50:00,
2013-09-14 03:55:00,49.1,46.0,30.12,SSW,195,0.0,2.0,89,0.00,,,0.00,VWS V14.01,2013-09-14 08:55:00,
2013-09-14 04:00:00,48.8,45.7,30.12,SSW,195,0.0,2.0,89,0.00,,,0.00,VWS V14.01,2013-09-14 09:00:00,
2013-09-14 04:05:00,48.3,45.2,30.12,SSW,195,0.0,0.0,89,0.00,,,0.00,VWS V14.01,2013-09-14 09:05:00,
2013-09-14 04:10:00,47.7,45.2,30.13,SSW,196,0.0,0.0,91,0.00,,,0.00,VWS V14.01,2013-09-14 09:10:00,
2013-09-14 04:15:00,47.6,45.4,30.12,SSW,195,0.0,0.0,92,0.00,,,0.00,VWS V14.01,2013-09-14 09:15:00,
2013-09-14 04:20:00,47.8,45.6,30.12,SSW,195,0.0,0.0,92,0.00,,,0.00,VWS V14.01,2013-09-14 09:20:00,
2013-09-14 04:25:00,47.9,45.7,30.12,SSW,195,0.0,0.0,92,0.00,,,0.00,VWS V14.01,2013-09-14 09:25:00,
2013-09-14 04:30:00,47.6,45.1,30.12,SSW,195,0.0,0.0,91,0.00,,,0.00,VWS V14.01,2013-09-14 09:30:00,
2013-09-14 04:35:00,47.0,44.5,30.12,SSW,195,0.0,0.0,91,0.00,,,0.00,VWS V14.01,2013-09-14 09:35:00,
2013-09-14 04:40:00,46.6,44.7,30.13,SSW,195,0.0,0.0,93,0.00,,,0.00,VWS V14.01,2013-09-14 09:40:00,
2013-09-14 04:45:00,46.5,45.2,30.12,SSW,195,0.0,0.0,95,0.00,,,0.00,VWS V14.01,2013-09-14 09:45:00,
2013-09-14 04:50:00,46.5,45.4,30.12,SSW,195,0.0,0.0,96,0.00,,,0.00,VWS V14.01,2013-09-14 09:50:00,
2013-09-14 04:55:00,46.3,45.2,30.13,South,190,0.0,0.0,96,0.00,,,0.00,VWS V14.01,2013-09-14 09:55:00,
2013-09-14 05:00:00,46.3,45.5,30.13,South,190,0.0,0.0,97,0.00,,,0.00,VWS V14.01,2013-09-14 10:00:00,
2013-09-14 05:05:00,46.3,45.5,30.12,South,170,0.0,0.0,97,0.00,,,0.00,VWS V14.01,2013-09-14 10:05:00,
2013-09-14 05:10:00,46.1,45.3,30.12,SSE,156,0.0,0.0,97,0.00,,,0.00,VWS V14.01,2013-09-14 10:10:00,
2013-09-14 05:15:00,46.2,45.7,30.12,East,98,0.0,1.0,98,0.00,,,0.00,VWS V14.01,2013-09-14 10:15:00,
2013-09-14 05:20:00,45.9,45.4,30.12,East,96,0.0,1.0,98,0.00,,,0.00,VWS V14.01,2013-09-14 10:20:00,
2013-09-14 05:25:00,45.8,45.3,30.13,ENE,66,0.0,1.0,98,0.00,,,0.00,VWS V14.01,2013-09-14 10:25:00,
2013-09-14 05:30:00,45.5,45.0,30.12,East,81,0.0,1.0,98,0.00,,,0.00,VWS V14.01,2013-09-14 10:30:00,
2013-09-14 05:35:00,45.4,44.9,30.12,East,79,0.0,0.0,98,0.00,,,0.00,VWS V14.01,2013-09-14 10:35:00,
2013-09-14 05:40:00,45.2,44.7,30.12,ENE,65,0.0,0.0,98,0.00,,,0.00,VWS V14.01,2013-09-14 10:40:00,
2013-09-14 05:45:00,45.1,44.6,30.12,ENE,65,0.0,0.0,98,0.00,,,0.00,VWS V14.01,2013-09-14 10:45:00,
2013-09-14 05:50:00,44.9,44.4,30.12,ENE,65,0.0,0.0,98,0.00,,,0.00,VWS V14.01,2013-09-14 10:50:00,
2013-09-14 05:55:00,44.6,44.1,30.12,ENE,65,0.0,0.0,98,0.00,,,0.00,VWS V14.01,2013-09-14 10:55:00,
2013-09-14 06:00:00,43.5,43.5,30.12,ENE,65,0.0,0.0,100,0.00,,,0.00,VWS V14.01,2013-09-14 11:00:00,
2013-09-14 06:05:00,44.3,44.0,30.12,ENE,72,0.0,0.0,99,0.00,,,0.00,VWS V14.01,2013-09-14 11:05:00,
2013-09-14 06:10:00,44.4,44.1,30.12,ENE,72,0.0,0.0,99,0.00,,,0.00,VWS V14.01,2013-09-14 11:10:00,
2013-09-14 06:15:00,44.3,43.8,30.12,ENE,72,0.0,0.0,98,0.00,,,0.00,VWS V14.01,2013-09-14 11:15:00,
2013-09-14 06:20:00,44.2,43.9,30.12,ENE,72,0.0,0.0,99,0.00,,,0.00,VWS V14.01,2013-09-14 11:20:00,
2013-09-14 06:26:00,44.2,43.9,30.12,ENE,72,0.0,0.0,99,0.00,,,0.00,VWS V14.01,2013-09-14 11:26:00,
2013-09-14 06:31:00,44.3,44.0,30.12,ENE,72,0.0,0.0,99,0.00,,,0.00,VWS V14.01,2013-09-14 11:31:00,
2013-09-14 06:36:00,44.5,44.2,30.13,ENE,72,0.0,0.0,99,0.00,,,0.00,VWS V14.01,2013-09-14 11:36:00,
2013-09-14 06:41:00,44.5,44.2,30.13,ENE,72,0.0,0.0,99,0.00,,,0.00,VWS V14.01,2013-09-14 11:41:00,
2013-09-14 06:46:00,44.5,44.2,30.13,ENE,72,0.0,0.0,99,0.00,,,0.00,VWS V14.01,2013-09-14 11:46:00,
2013-09-14 06:51:00,44.6,44.3,30.13,ENE,72,0.0,0.0,99,0.00,,,0.00,VWS V14.01,2013-09-14 11:51:00,
2013-09-14 06:56:00,44.9,44.6,30.13,ENE,72,0.0,0.0,99,0.00,,,0.00,VWS V14.01,2013-09-14 11:56:00,
2013-09-14 07:01:00,45.0,44.7,30.13,ENE,72,0.0,0.0,99,0.00,,,0.00,VWS V14.01,2013-09-14 12:01:00,
2013-09-14 07:06:00,45.0,44.7,30.14,ENE,72,0.0,0.0,99,0.00,,,0.00,VWS V14.01,2013-09-14 12:06:00,
2013-09-14 07:11:00,45.6,45.6,30.14,ENE,72,0.0,0.0,100,0.00,,,0.00,VWS V14.01,2013-09-14 12:11:00,
2013-09-14 07:16:00,46.1,46.1,30.14,ENE,72,0.0,0.0,100,0.00,,,0.00,VWS V14.01,2013-09-14 12:16:00,
2013-09-14 07:21:00,46.6,46.6,30.15,ENE,72,0.0,0.0,100,0.00,,,0.00,VWS V14.01,2013-09-14 12:21:00,
2013-09-14 07:26:00,47.3,47.3,30.15,ENE,72,0.0,0.0,100,0.00,,,0.00,VWS V14.01,2013-09-14 12:26:00,
2013-09-14 07:31:00,47.8,47.5,30.15,ENE,72,0.0,0.0,99,0.00,,,0.00,VWS V14.01,2013-09-14 12:31:00,
2013-09-14 07:36:00,47.9,47.4,30.15,ENE,72,0.0,0.0,98,0.00,,,0.00,VWS V14.01,2013-09-14 12:36:00,
2013-09-14 07:41:00,48.5,48.0,30.15,ENE,72,0.0,0.0,98,0.00,,,0.00,VWS V14.01,2013-09-14 12:41:00,
2013-09-14 07:46:00,49.6,48.8,30.15,ENE,72,0.0,0.0,97,0.00,,,0.00,VWS V14.01,2013-09-14 12:46:00,
2013-09-14 07:51:00,50.4,49.3,30.15,ENE,72,0.0,0.0,96,0.00,,,0.00,VWS V14.01,2013-09-14 12:51:00,
2013-09-14 07:56:00,51.8,50.1,30.15,ENE,72,0.0,0.0,94,0.00,,,0.00,VWS V14.01,2013-09-14 12:56:00,
2013-09-14 08:01:00,52.9,50.6,30.16,ENE,72,0.0,0.0,92,0.00,,,0.00,VWS V14.01,2013-09-14 13:01:00,
2013-09-14 08:06:00,53.5,50.9,30.16,ENE,72,0.0,0.0,91,0.00,,,0.00,VWS V14.01,2013-09-14 13:06:00,
2013-09-14 08:11:00,53.8,50.6,30.16,SE,139,0.0,0.0,89,0.00,,,0.00,VWS V14.01,2013-09-14 13:11:00,
2013-09-14 08:16:00,54.4,50.6,30.16,SSE,166,0.0,0.0,87,0.00,,,0.00,VWS V14.01,2013-09-14 13:16:00,
2013-09-14 08:21:00,55.3,50.9,30.16,SW,225,0.0,0.0,85,0.00,,,0.00,VWS V14.01,2013-09-14 13:21:00,
2013-09-14 08:26:00,55.5,50.4,30.16,SW,225,0.0,0.0,83,0.00,,,0.00,VWS V14.01,2013-09-14 13:26:00,
2013-09-14 08:31:00,56.2,51.1,30.16,SSW,200,0.0,0.0,83,0.00,,,0.00,VWS V14.01,2013-09-14 13:31:00,
2013-09-14 08:36:00,56.6,50.8,30.15,SW,222,0.0,1.0,81,0.00,,,0.00,VWS V14.01,2013-09-14 13:36:00,
2013-09-14 08:41:00,56.4,50.7,30.15,SW,228,0.0,2.0,81,0.00,,,0.00,VWS V14.01,2013-09-14 13:41:00,
2013-09-14 08:46:00,56.1,50.4,30.15,SSW,198,3.0,4.0,81,0.00,,,0.00,VWS V14.01,2013-09-14 13:46:00,
2013-09-14 08:51:00,56.3,50.9,30.15,SW,214,3.0,4.0,82,0.00,,,0.00,VWS V14.01,2013-09-14 13:51:00,
2013-09-14 08:56:00,56.6,51.2,30.15,SSW,212,0.0,4.0,82,0.00,,,0.00,VWS V14.01,2013-09-14 13:56:00,
2013-09-14 09:01:00,56.7,50.9,30.15,WSW,238,3.0,4.0,81,0.00,,,0.00,VWS V14.01,2013-09-14 14:01:00,
2013-09-14 09:06:00,56.7,50.6,30.15,SSW,211,2.0,6.0,80,0.00,,,0.00,VWS V14.01,2013-09-14 14:06:00,
2013-09-14 09:11:00,57.0,50.9,30.15,SW,214,2.0,7.0,80,0.00,,,0.00,VWS V14.01,2013-09-14 14:11:00,
2013-09-14 09:16:00,57.3,51.2,30.15,SW,236,1.0,7.0,80,0.00,,,0.00,VWS V14.01,2013-09-14 14:16:00,
2013-09-14 09:21:00,57.8,50.7,30.15,SW,232,4.0,7.0,77,0.00,,,0.00,VWS V14.01,2013-09-14 14:21:00,
2013-09-14 09:26:00,58.1,50.6,30.15,SW,219,9.0,9.0,76,0.00,,,0.00,VWS V14.01,2013-09-14 14:26:00,
2013-09-14 09:31:00,58.2,50.7,30.15,SW,225,3.0,8.0,76,0.00,,,0.00,VWS V14.01,2013-09-14 14:31:00,
2013-09-14 09:36:00,58.4,50.5,30.15,SW,235,5.0,8.0,75,0.00,,,0.00,VWS V14.01,2013-09-14 14:36:00,
2013-09-14 09:41:00,58.8,50.5,30.15,SW,233,5.0,8.0,74,0.00,,,0.00,VWS V14.01,2013-09-14 14:41:00,
2013-09-14 09:46:00,58.9,50.6,30.15,SSW,194,3.0,8.0,74,0.00,,,0.00,VWS V14.01,2013-09-14 14:46:00,
2013-09-14 09:51:00,59.0,50.7,30.15,SW,236,6.0,10.0,74,0.00,,,0.00,VWS V14.01,2013-09-14 14:51:00,
2013-09-14 09:57:00,59.4,51.1,30.15,SSW,210,3.0,10.0,74,0.00,,,0.00,VWS V14.01,2013-09-14 14:57:00,
2013-09-14 10:02:00,59.6,51.0,30.15,SW,219,5.0,6.0,73,0.00,,,0.00,VWS V14.01,2013-09-14 15:02:00,
2013-09-14 10:07:00,59.9,51.2,30.15,SW,231,8.0,8.0,73,0.00,,,0.00,VWS V14.01,2013-09-14 15:07:00,
2013-09-14 10:12:00,60.3,50.9,30.15,SSW,208,4.0,8.0,71,0.00,,,0.00,VWS V14.01,2013-09-14 15:12:00,
2013-09-14 10:17:00,60.5,51.1,30.15,WSW,255,7.0,8.0,71,0.00,,,0.00,VWS V14.01,2013-09-14 15:17:00,
2013-09-14 10:22:00,60.6,51.2,30.15,South,181,6.0,11.0,71,0.00,,,0.00,VWS V14.01,2013-09-14 15:22:00,
2013-09-14 10:27:00,60.9,51.5,30.15,SW,224,6.0,11.0,71,0.00,,,0.00,VWS V14.01,2013-09-14 15:27:00,
2013-09-14 10:32:00,61.0,51.2,30.15,SW,226,5.0,9.0,70,0.00,,,0.00,VWS V14.01,2013-09-14 15:32:00,
2013-09-14 10:37:00,61.3,51.8,30.15,SSW,204,2.0,10.0,71,0.00,,,0.00,VWS V14.01,2013-09-14 15:37:00,
2013-09-14 10:42:00,61.9,52.0,30.15,SW,228,0.0,10.0,70,0.00,,,0.00,VWS V14.01,2013-09-14 15:42:00,
2013-09-14 10:47:00,62.8,52.5,30.14,SSW,212,3.0,10.0,69,0.00,,,0.00,VWS V14.01,2013-09-14 15:47:00,
2013-09-14 10:52:00,63.0,51.5,30.14,SW,233,5.0,10.0,66,0.00,,,0.00,VWS V14.01,2013-09-14 15:52:00,
2013-09-14 10:57:00,62.9,51.8,30.14,SW,219,2.0,10.0,67,0.00,,,0.00,VWS V14.01,2013-09-14 15:57:00,
2013-09-14 11:02:00,63.1,51.2,30.14,West,259,6.0,6.0,65,0.00,,,0.00,VWS V14.01,2013-09-14 16:02:00,
2013-09-14 11:07:00,63.2,51.7,30.14,WSW,248,1.0,7.0,66,0.00,,,0.00,VWS V14.01,2013-09-14 16:07:00,
2013-09-14 11:12:00,63.6,51.2,30.13,South,181,3.0,9.0,64,0.00,,,0.00,VWS V14.01,2013-09-14 16:12:00,
2013-09-14 11:17:00,63.8,51.8,30.13,South,172,2.0,9.0,65,0.00,,,0.00,VWS V14.01,2013-09-14 16:17:00,
2013-09-14 11:22:00,64.3,51.9,30.13,SSW,200,4.0,9.0,64,0.00,,,0.00,VWS V14.01,2013-09-14 16:22:00,
2013-09-14 11:27:00,64.5,51.6,30.13,West,278,4.0,9.0,63,0.00,,,0.00,VWS V14.01,2013-09-14 16:27:00,
2013-09-14 11:32:00,64.6,51.7,30.13,WSW,256,3.0,6.0,63,0.00,,,0.00,VWS V14.01,2013-09-14 16:32:00,
2013-09-14 11:37:00,64.9,52.0,30.12,WSW,250,2.0,9.0,63,0.00,,,0.00,VWS V14.01,2013-09-14 16:37:00,
2013-09-14 11:42:00,65.1,51.3,30.12,West,260,1.0,9.0,61,0.00,,,0.00,VWS V14.01,2013-09-14 16:42:00,
2013-09-14 11:47:00,65.5,52.2,30.12,SW,232,2.0,9.0,62,0.00,,,0.00,VWS V14.01,2013-09-14 16:47:00,
2013-09-14 11:52:00,65.9,51.2,30.12,SW,234,5.0,9.0,59,0.00,,,0.00,VWS V14.01,2013-09-14 16:52:00,
2013-09-14 11:57:00,66.0,50.8,30.12,SW,235,8.0,9.0,58,0.00,,,0.00,VWS V14.01,2013-09-14 16:57:00,
2013-09-14 12:04:00,65.8,51.0,30.11,SE,129,1.0,8.0,59,0.00,,,0.00,weatherlink.com 1.10,2013-09-14 17:04:00,
2013-09-14 12:09:00,66.5,52.2,30.11,WSW,246,0.0,4.0,60,0.00,,,0.00,VWS V14.01,2013-09-14 17:09:00,
2013-09-14 12:14:00,66.9,51.7,30.11,SSW,210,3.0,7.0,58,0.00,,,0.00,VWS V14.01,2013-09-14 17:14:00,
2013-09-14 12:19:00,66.8,49.6,30.11,WSW,240,1.0,10.0,54,0.00,,,0.00,VWS V14.01,2013-09-14 17:19:00,
2013-09-14 12:24:00,67.0,50.8,30.11,SSW,197,3.0,10.0,56,0.00,,,0.00,VWS V14.01,2013-09-14 17:24:00,
2013-09-14 12:29:00,66.9,49.7,30.11,West,266,4.0,10.0,54,0.00,,,0.00,VWS V14.01,2013-09-14 17:29:00,
2013-09-14 12:34:00,67.4,50.2,30.10,SW,225,0.0,5.0,54,0.00,,,0.00,VWS V14.01,2013-09-14 17:34:00,
2013-09-14 12:39:00,67.8,50.6,30.10,SE,134,3.0,6.0,54,0.00,,,0.00,VWS V14.01,2013-09-14 17:39:00,
2013-09-14 12:44:00,68.3,50.5,30.10,South,190,1.0,6.0,53,0.00,,,0.00,VWS V14.01,2013-09-14 17:44:00,
2013-09-14 12:49:00,68.1,50.8,30.10,WSW,241,3.0,9.0,54,0.00,,,0.00,VWS V14.01,2013-09-14 17:49:00,
2013-09-14 12:54:00,68.4,50.6,30.09,West,266,5.0,9.0,53,0.00,,,0.00,VWS V14.01,2013-09-14 17:54:00,
2013-09-14 12:59:00,68.6,49.8,30.09,SW,229,6.0,9.0,51,0.00,,,0.00,VWS V14.01,2013-09-14 17:59:00,
2013-09-14 13:04:00,68.2,50.4,30.08,ESE,123,2.0,6.0,53,0.00,,,0.00,VWS V14.01,2013-09-14 18:04:00,
2013-09-14 13:09:00,68.6,50.3,30.08,SW,228,3.0,9.0,52,0.00,,,0.00,VWS V14.01,2013-09-14 18:09:00,
2013-09-14 13:14:00,68.7,50.4,30.08,SSW,201,4.0,9.0,52,0.00,,,0.00,VWS V14.01,2013-09-14 18:14:00,
2013-09-14 13:19:00,68.8,50.0,30.07,SW,224,0.0,9.0,51,0.00,,,0.00,VWS V14.01,2013-09-14 18:19:00,
2013-09-14 13:24:00,69.6,51.2,30.07,SE,145,3.0,9.0,52,0.00,,,0.00,VWS V14.01,2013-09-14 18:24:00,
2013-09-14 13:29:00,70.4,49.8,30.07,SW,226,4.0,9.0,48,0.00,,,0.00,VWS V14.01,2013-09-14 18:29:00,
2013-09-14 13:34:00,70.1,50.1,30.07,SSW,203,1.0,6.0,49,0.00,,,0.00,VWS V14.01,2013-09-14 18:34:00,
2013-09-14 13:39:00,69.9,49.3,30.07,SSW,198,0.0,6.0,48,0.00,,,0.00,VWS V14.01,2013-09-14 18:39:00,
2013-09-14 13:44:00,70.1,50.6,30.07,SSW,212,0.0,6.0,50,0.00,,,0.00,VWS V14.01,2013-09-14 18:44:00,
2013-09-14 13:49:00,70.5,51.0,30.06,SSW,193,3.0,6.0,50,0.00,,,0.00,VWS V14.01,2013-09-14 18:49:00,
2013-09-14 13:54:00,70.7,51.7,30.06,South,188,0.0,6.0,51,0.00,,,0.00,VWS V14.01,2013-09-14 18:54:00,
2013-09-14 14:00:00,71.1,51.0,30.06,SSE,152,6.0,8.0,49,0.00,,,0.00,weatherlink.com 1.10,2013-09-14 19:00:00,
2013-09-14 14:07:00,71.0,50.9,30.05,SSE,159,2.0,2.0,49,0.00,,,0.00,VWS V14.01,2013-09-14 19:07:00,
2013-09-14 14:12:00,71.6,51.5,30.05,SW,228,2.0,4.0,49,0.00,,,0.00,VWS V14.01,2013-09-14 19:12:00,
2013-09-14 14:17:00,71.7,51.0,30.05,SSW,208,1.0,5.0,48,0.00,,,0.00,VWS V14.01,2013-09-14 19:17:00,
2013-09-14 14:22:00,71.6,50.9,30.05,SSW,196,5.0,6.0,48,0.00,,,0.00,VWS V14.01,2013-09-14 19:22:00,
2013-09-14 14:27:00,71.6,51.5,30.05,SW,215,0.0,6.0,49,0.00,,,0.00,VWS V14.01,2013-09-14 19:27:00,
2013-09-14 14:32:00,71.7,51.0,30.05,NW,326,0.0,2.0,48,0.00,,,0.00,VWS V14.01,2013-09-14 19:32:00,
2013-09-14 14:37:00,72.0,51.3,30.04,SW,231,3.0,5.0,48,0.00,,,0.00,VWS V14.01,2013-09-14 19:37:00,
2013-09-14 14:42:00,71.7,51.0,30.04,SW,231,4.0,6.0,48,0.00,,,0.00,VWS V14.01,2013-09-14 19:42:00,
2013-09-14 14:47:00,71.4,51.3,30.03,SSW,201,1.0,6.0,49,0.00,,,0.00,VWS V14.01,2013-09-14 19:47:00,
2013-09-14 14:52:00,71.6,50.9,30.03,SW,223,2.0,6.0,48,0.00,,,0.00,VWS V14.01,2013-09-14 19:52:00,
2013-09-14 14:57:00,72.4,52.2,30.03,NE,43,1.0,6.0,49,0.00,,,0.00,VWS V14.01,2013-09-14 19:57:00,
2013-09-14 15:02:00,72.9,51.5,30.03,ESE,121,5.0,5.0,47,0.00,,,0.00,VWS V14.01,2013-09-14 20:02:00,
2013-09-14 15:07:00,73.2,51.2,30.03,SSW,200,3.0,8.0,46,0.00,,,0.00,VWS V14.01,2013-09-14 20:07:00,
2013-09-14 15:12:00,73.0,51.0,30.02,South,177,2.0,8.0,46,0.00,,,0.00,VWS V14.01,2013-09-14 20:12:00,
2013-09-14 15:17:00,73.8,51.8,30.02,ESE,108,8.0,8.0,46,0.00,,,0.00,VWS V14.01,2013-09-14 20:17:00,
2013-09-14 15:22:00,73.8,50.5,30.01,West,281,5.0,8.0,44,0.00,,,0.00,VWS V14.01,2013-09-14 20:22:00,
2013-09-14 15:27:00,74.0,51.9,30.01,South,181,2.0,8.0,46,0.00,,,0.00,VWS V14.01,2013-09-14 20:27:00,
2013-09-14 15:32:00,74.2,52.1,30.01,SSW,200,3.0,5.0,46,0.00,,,0.00,VWS V14.01,2013-09-14 20:32:00,
2013-09-14 15:37:00,74.1,51.4,30.01,WSW,248,2.0,7.0,45,0.00,,,0.00,VWS V14.01,2013-09-14 20:37:00,
2013-09-14 15:42:00,74.4,51.1,30.01,South,187,4.0,7.0,44,0.00,,,0.00,VWS V14.01,2013-09-14 20:42:00,
2013-09-14 15:47:00,74.2,51.5,30.01,West,279,1.0,8.0,45,0.00,,,0.00,VWS V14.01,2013-09-14 20:47:00,
2013-09-14 15:52:00,74.0,50.1,30.01,SSW,211,5.0,8.0,43,0.00,,,0.00,VWS V14.01,2013-09-14 20:52:00,
2013-09-14 15:57:00,73.7,50.5,30.01,SSE,154,2.0,8.0,44,0.00,,,0.00,VWS V14.01,2013-09-14 20:57:00,
2013-09-14 16:02:00,73.8,51.8,30.00,SSE,148,1.0,4.0,46,0.00,,,0.00,VWS V14.01,2013-09-14 21:02:00,
2013-09-14 16:07:00,74.4,51.1,30.01,South,177,1.0,6.0,44,0.00,,,0.00,VWS V14.01,2013-09-14 21:07:00,
2013-09-14 16:12:00,74.4,50.5,30.01,SW,219,1.0,7.0,43,0.00,,,0.00,VWS V14.01,2013-09-14 21:12:00,
2013-09-14 16:17:00,73.9,50.6,30.01,SW,217,5.0,10.0,44,0.00,,,0.00,VWS V14.01,2013-09-14 21:17:00,
2013-09-14 16:22:00,73.4,50.2,30.00,SSW,201,2.0,10.0,44,0.00,,,0.00,VWS V14.01,2013-09-14 21:22:00,
2013-09-14 16:27:00,72.9,50.3,30.00,SW,231,1.0,10.0,45,0.00,,,0.00,VWS V14.01,2013-09-14 21:27:00,
2013-09-14 16:33:00,72.6,50.7,30.00,SSE,157,4.0,5.0,46,0.00,,,0.00,VWS V14.01,2013-09-14 21:33:00,
2013-09-14 16:38:00,72.8,51.4,30.00,WSW,246,0.0,5.0,47,0.00,,,0.00,VWS V14.01,2013-09-14 21:38:00,
2013-09-14 16:43:00,73.2,50.6,30.00,SSE,162,0.0,6.0,45,0.00,,,0.00,VWS V14.01,2013-09-14 21:43:00,
2013-09-14 16:48:00,73.2,50.0,30.00,WSW,240,0.0,6.0,44,0.00,,,0.00,VWS V14.01,2013-09-14 21:48:00,
2013-09-14 16:53:00,73.6,50.4,30.00,SW,224,4.0,7.0,44,0.00,,,0.00,VWS V14.01,2013-09-14 21:53:00,
2013-09-14 16:58:00,73.3,50.1,30.00,SW,232,1.0,7.0,44,0.00,,,0.00,VWS V14.01,2013-09-14 21:58:00,
2013-09-14 17:03:00,73.7,51.1,30.00,ESE,117,1.0,4.0,45,0.00,,,0.00,VWS V14.01,2013-09-14 22:03:00,
2013-09-14 17:08:00,74.0,51.3,30.00,SW,217,0.0,5.0,45,0.00,,,0.00,VWS V14.01,2013-09-14 22:08:00,
2013-09-14 17:13:00,74.1,50.8,30.00,SW,231,1.0,5.0,44,0.00,,,0.00,VWS V14.01,2013-09-14 22:13:00,
2013-09-14 17:18:00,73.1,51.1,29.99,SSE,158,2.0,7.0,46,0.00,,,0.00,VWS V14.01,2013-09-14 22:18:00,
2013-09-14 17:24:00,72.4,50.5,29.99,SSW,208,1.0,7.0,46,0.00,,,0.00,VWS V14.01,2013-09-14 22:24:00,
2013-09-14 17:29:00,72.1,49.6,29.99,South,174,2.0,7.0,45,0.00,,,0.00,VWS V14.01,2013-09-14 22:29:00,
2013-09-14 17:34:00,72.0,50.1,29.99,SSE,167,0.0,5.0,46,0.00,,,0.00,VWS V14.01,2013-09-14 22:34:00,
2013-09-14 17:39:00,71.8,51.1,29.99,SE,134,1.0,5.0,48,0.00,,,0.00,VWS V14.01,2013-09-14 22:39:00,
2013-09-14 17:44:00,71.7,51.5,29.98,WSW,249,0.0,5.0,49,0.00,,,0.00,VWS V14.01,2013-09-14 22:44:00,
2013-09-14 17:49:00,71.5,50.8,29.98,SSE,165,6.0,6.0,48,0.00,,,0.00,VWS V14.01,2013-09-14 22:49:00,
2013-09-14 17:54:00,71.4,50.7,29.98,South,174,1.0,6.0,48,0.00,,,0.00,VWS V14.01,2013-09-14 22:54:00,
2013-09-14 17:59:00,71.1,49.9,29.98,SSE,161,3.0,6.0,47,0.00,,,0.00,VWS V14.01,2013-09-14 22:59:00,
2013-09-14 18:04:00,70.8,50.7,29.98,ESE,115,0.0,1.0,49,0.00,,,0.00,VWS V14.01,2013-09-14 23:04:00,
2013-09-14 18:09:00,70.4,50.9,29.98,SE,138,1.0,3.0,50,0.00,,,0.00,VWS V14.01,2013-09-14 23:09:00,
2013-09-14 18:14:00,70.0,50.5,29.98,SE,136,1.0,5.0,50,0.00,,,0.00,VWS V14.01,2013-09-14 23:14:00,
2013-09-14 18:19:00,69.5,51.1,29.98,SE,139,2.0,5.0,52,0.00,,,0.00,VWS V14.01,2013-09-14 23:19:00,
2013-09-14 18:24:00,69.1,50.8,29.98,SSE,148,3.0,5.0,52,0.00,,,0.00,VWS V14.01,2013-09-14 23:24:00,
2013-09-14 18:29:00,68.7,50.9,29.98,SE,146,1.0,5.0,53,0.00,,,0.00,VWS V14.01,2013-09-14 23:29:00,
2013-09-14 18:34:00,68.3,50.5,29.98,South,176,0.0,6.0,53,0.00,,,0.00,VWS V14.01,2013-09-14 23:34:00,
2013-09-14 18:39:00,68.1,50.3,29.98,SE,134,1.0,6.0,53,0.00,,,0.00,VWS V14.01,2013-09-14 23:39:00,
2013-09-14 18:44:00,67.9,50.7,29.98,SE,132,3.0,6.0,54,0.00,,,0.00,VWS V14.01,2013-09-14 23:44:00,
2013-09-14 18:49:00,67.6,50.9,29.98,SSE,162,0.0,6.0,55,0.00,,,0.00,VWS V14.01,2013-09-14 23:49:00,
2013-09-14 18:54:00,67.5,50.8,29.98,East,101,1.0,6.0,55,0.00,,,0.00,VWS V14.01,2013-09-14 23:54:00,
2013-09-14 18:59:00,67.2,50.5,29.98,ESE,119,0.0,6.0,55,0.00,,,0.00,VWS V14.01,2013-09-14 23:59:00,
2013-09-14 19:04:00,67.0,50.8,29.98,SSE,162,3.0,4.0,56,0.00,,,0.00,VWS V14.01,2013-09-15 00:04:00,
2013-09-14 19:10:00,66.8,50.6,29.98,ESE,107,3.0,4.0,56,0.00,,,0.00,VWS V14.01,2013-09-15 00:10:00,
2013-09-14 19:15:00,66.7,50.5,29.98,SE,127,1.0,4.0,56,0.00,,,0.00,VWS V14.01,2013-09-15 00:15:00,
2013-09-14 19:20:00,66.7,50.5,29.97,SE,131,3.0,5.0,56,0.00,,,0.00,VWS V14.01,2013-09-15 00:20:00,
2013-09-14 19:25:00,66.6,50.0,29.97,SSW,194,1.0,5.0,55,0.00,,,0.00,VWS V14.01,2013-09-15 00:25:00,
2013-09-14 19:30:00,66.6,50.0,29.97,SE,134,3.0,4.0,55,0.00,,,0.00,weatherlink.com 1.10,2013-09-15 00:30:00,
2013-09-14 19:35:00,66.8,49.6,29.97,SSE,158,2.0,4.0,54,0.00,,,0.00,VWS V14.01,2013-09-15 00:35:00,
2013-09-14 19:40:00,66.7,50.0,29.97,SE,143,0.0,4.0,55,0.00,,,0.00,VWS V14.01,2013-09-15 00:40:00,
2013-09-14 19:45:00,66.6,50.0,29.97,SSE,150,1.0,4.0,55,0.00,,,0.00,VWS V14.01,2013-09-15 00:45:00,
2013-09-14 19:50:00,66.4,50.2,29.97,SE,125,4.0,4.0,56,0.00,,,0.00,VWS V14.01,2013-09-15 00:50:00,
2013-09-14 19:55:00,66.4,49.8,29.97,ESE,112,1.0,4.0,55,0.00,,,0.00,VWS V14.01,2013-09-15 00:55:00,
2013-09-14 20:00:00,66.4,49.8,29.96,SE,141,3.0,4.0,55,0.00,,,0.00,VWS V14.01,2013-09-15 01:00:00,
2013-09-14 20:05:00,66.4,49.8,29.96,SSE,159,0.0,4.0,55,0.00,,,0.00,VWS V14.01,2013-09-15 01:05:00,
2013-09-14 20:10:00,66.3,49.7,29.96,SSE,152,4.0,4.0,55,0.00,,,0.00,VWS V14.01,2013-09-15 01:10:00,
2013-09-14 20:15:00,66.3,49.7,29.96,SSE,152,1.0,6.0,55,0.00,,,0.00,VWS V14.01,2013-09-15 01:15:00,
2013-09-14 20:20:00,66.3,49.7,29.97,SSW,201,1.0,6.0,55,0.00,,,0.00,VWS V14.01,2013-09-15 01:20:00,
2013-09-14 20:25:00,66.2,50.1,29.97,SE,127,1.0,6.0,56,0.00,,,0.00,VWS V14.01,2013-09-15 01:25:00,
2013-09-14 20:30:00,66.1,50.0,29.96,SSE,152,4.0,6.0,56,0.00,,,0.00,VWS V14.01,2013-09-15 01:30:00,
2013-09-14 20:35:00,66.1,50.0,29.97,SSE,165,2.0,8.0,56,0.00,,,0.00,VWS V14.01,2013-09-15 01:35:00,
2013-09-14 20:40:00,66.0,49.9,29.97,SSW,193,0.0,8.0,56,0.00,,,0.00,VWS V14.01,2013-09-15 01:40:00,
2013-09-14 20:45:00,65.9,49.8,29.97,SE,146,0.0,8.0,56,0.00,,,0.00,VWS V14.01,2013-09-15 01:45:00,
2013-09-14 20:50:00,65.8,49.7,29.97,SE,129,2.0,8.0,56,0.00,,,0.00,VWS V14.01,2013-09-15 01:50:00,
2013-09-14 20:55:00,65.6,50.0,29.97,SSE,154,2.0,8.0,57,0.00,,,0.00,VWS V14.01,2013-09-15 01:55:00,
2013-09-14 21:00:00,65.5,49.9,29.97,SSW,204,2.0,8.0,57,0.00,,,0.00,VWS V14.01,2013-09-15 02:00:00,
2013-09-14 21:05:00,65.5,49.9,29.97,SSE,158,2.0,5.0,57,0.00,,,0.00,VWS V14.01,2013-09-15 02:05:00,
2013-09-14 21:10:00,65.5,49.9,29.97,SSW,203,0.0,5.0,57,0.00,,,0.00,VWS V14.01,2013-09-15 02:10:00,
2013-09-14 21:15:00,65.6,49.5,29.96,South,170,1.0,9.0,56,0.00,,,0.00,VWS V14.01,2013-09-15 02:15:00,
2013-09-14 21:20:00,65.8,49.7,29.96,SW,236,3.0,9.0,56,0.00,,,0.00,VWS V14.01,2013-09-15 02:20:00,
2013-09-14 21:25:00,65.8,49.7,29.96,SSW,208,1.0,9.0,56,0.00,,,0.00,VWS V14.01,2013-09-15 02:25:00,
2013-09-14 21:30:00,65.8,49.7,29.96,SW,224,1.0,9.0,56,0.00,,,0.00,VWS V14.01,2013-09-15 02:30:00,
2013-09-14 21:35:00,65.8,49.7,29.96,SSW,208,1.0,6.0,56,0.00,,,0.00,VWS V14.01,2013-09-15 02:35:00,
2013-09-14 21:40:00,65.8,49.7,29.96,SSW,212,3.0,7.0,56,0.00,,,0.00,VWS V14.01,2013-09-15 02:40:00,
2013-09-14 21:45:00,65.7,49.6,29.96,SW,224,3.0,7.0,56,0.00,,,0.00,VWS V14.01,2013-09-15 02:45:00,
2013-09-14 21:50:00,65.6,50.0,29.96,WSW,242,1.0,7.0,57,0.00,,,0.00,VWS V14.01,2013-09-15 02:50:00,
2013-09-14 21:55:00,65.5,49.9,29.95,South,176,0.0,7.0,57,0.00,,,0.00,VWS V14.01,2013-09-15 02:55:00,
2013-09-14 22:00:00,65.5,49.9,29.95,SW,224,0.0,7.0,57,0.00,,,0.00,VWS V14.01,2013-09-15 03:00:00,
2013-09-14 22:05:00,65.3,49.7,29.95,ESE,118,2.0,7.0,57,0.00,,,0.00,VWS V14.01,2013-09-15 03:05:00,
2013-09-14 22:10:00,65.4,49.8,29.96,South,191,1.0,9.0,57,0.00,,,0.00,VWS V14.01,2013-09-15 03:10:00,
2013-09-14 22:15:00,65.3,49.7,29.96,SSW,211,3.0,9.0,57,0.00,,,0.00,VWS V14.01,2013-09-15 03:15:00,
2013-09-14 22:20:00,65.1,49.5,29.96,SW,224,2.0,9.0,57,0.00,,,0.00,VWS V14.01,2013-09-15 03:20:00,
2013-09-14 22:25:00,64.9,49.8,29.96,SW,232,1.0,9.0,58,0.00,,,0.00,VWS V14.01,2013-09-15 03:25:00,
2013-09-14 22:31:00,64.8,49.7,29.96,SW,214,0.0,9.0,58,0.00,,,0.00,VWS V14.01,2013-09-15 03:31:00,
2013-09-14 22:36:00,64.7,49.6,29.96,SW,221,3.0,9.0,58,0.00,,,0.00,VWS V14.01,2013-09-15 03:36:00,
2013-09-14 22:41:00,64.5,49.9,29.96,South,188,1.0,9.0,59,0.00,,,0.00,VWS V14.01,2013-09-15 03:41:00,
2013-09-14 22:46:00,64.4,49.8,29.96,SW,214,3.0,9.0,59,0.00,,,0.00,VWS V14.01,2013-09-15 03:46:00,
2013-09-14 22:51:00,64.3,49.2,29.95,South,191,3.0,9.0,58,0.00,,,0.00,VWS V14.01,2013-09-15 03:51:00,
2013-09-14 22:56:00,64.4,49.3,29.95,South,177,4.0,9.0,58,0.00,,,0.00,VWS V14.01,2013-09-15 03:56:00,
2013-09-14 23:01:00,64.6,49.0,29.94,South,187,2.0,9.0,57,0.00,,,0.00,VWS V14.01,2013-09-15 04:01:00,
2013-09-14 23:03:00,64.6,49.5,29.94,South,191,2.0,2.0,58,0.00,,,0.00,VWS V14.01,2013-09-15 04:03:00,
2013-09-14 23:08:00,64.5,49.0,29.94,SW,229,2.0,4.0,57,0.00,,,0.00,VWS V14.01,2013-09-15 04:08:00,
2013-09-14 23:13:00,64.5,49.4,29.94,SSW,208,2.0,4.0,58,0.00,,,0.00,VWS V14.01,2013-09-15 04:13:00,
2013-09-14 23:18:00,64.3,49.2,29.94,WSW,239,0.0,4.0,58,0.00,,,0.00,VWS V14.01,2013-09-15 04:18:00,
2013-09-14 23:23:00,64.2,49.1,29.94,SSW,193,1.0,4.0,58,0.00,,,0.00,VWS V14.01,2013-09-15 04:23:00,
2013-09-14 23:28:00,64.1,49.0,29.95,SSW,210,1.0,5.0,58,0.00,,,0.00,VWS V14.01,2013-09-15 04:28:00,
2013-09-14 23:33:00,64.1,49.0,29.94,SSW,203,2.0,5.0,58,0.00,,,0.00,VWS V14.01,2013-09-15 04:33:00,
2013-09-14 23:38:00,64.0,48.9,29.94,SSW,210,2.0,5.0,58,0.00,,,0.00,VWS V14.01,2013-09-15 04:38:00,
2013-09-14 23:43:00,64.0,48.9,29.94,SSE,163,1.0,5.0,58,0.00,,,0.00,VWS V14.01,2013-09-15 04:43:00,
2013-09-14 23:48:00,64.0,48.9,29.94,South,186,3.0,5.0,58,0.00,,,0.00,VWS V14.01,2013-09-15 04:48:00,
2013-09-14 23:53:00,64.1,49.0,29.94,SW,214,3.0,6.0,58,0.00,,,0.00,VWS V14.01,2013-09-15 04:53:00,
2013-09-14 23:58:00,64.1,49.0,29.94,SSW,193,3.0,6.0,58,0.00,,,0.00,VWS V14.01,2013-09-15 04:58:00,